EW9807 Weather Reports


time (UTC)temp
C
wind
direction
speed
KPH
gust
KPH
rain 1hr
cm
rain 24hr
cm
rain mn
cm
humidity
%
barometer
mb
20260510224550 25 167 0.0 3.2 0.00 0.00 0.00 58 1016.0
20260510224101 25 167 1.6 3.2 0.00 0.00 0.00 55 1015.9
20260510223552 25 167 0.0 1.6 0.00 0.00 0.00 56 1016.0
20260510223102 25 168 0.0 4.8 0.00 0.00 0.00 56 1015.8
20260510222551 26 168 3.2 6.4 0.00 0.00 0.00 53 1015.9
20260510222101 26 176 1.6 9.7 0.00 0.00 0.00 54 1015.8
20260510221553 26 208 3.2 6.4 0.00 0.00 0.00 54 1015.8
20260510221056 26 141 1.6 4.8 0.00 0.00 0.00 54 1015.9
20260510220544 26 203 0.0 0.0 0.00 0.00 0.00 53 1015.8
20260510220056 26 203 0.0 0.0 0.00 0.00 0.00 54 1015.8
20260510215602 26 202 0.0 3.2 0.00 0.00 0.00 53 1015.8
20260510214052 27 159 3.2 6.4 0.00 0.00 0.00 49 1015.8
20260510213544 27 179 3.2 9.7 0.00 0.00 0.00 48 1015.8
20260510213054 27 149 4.8 11.3 0.00 0.00 0.00 49 1015.8
20260510213011 27 182 4.8 11.3 0.00 0.00 0.00 49 1014.8
20260510212049 27 213 3.2 11.3 0.00 0.00 0.00 48 1015.8
20260510211511 26 165 1.6 9.7 0.00 0.00 0.00 50 1014.9
20260510210552 27 186 4.8 8.0 0.00 0.00 0.00 49 1015.7
20260510210131 27 200 1.6 6.4 0.00 0.00 0.00 52 1015.6
20260510205547 26 182 1.6 6.4 0.00 0.00 0.00 55 1015.7
20260510205055 26 139 1.6 4.8 0.00 0.00 0.00 53 1015.8
20260510204602 26 214 0.0 0.0 0.00 0.00 0.00 53 1015.8
20260510204502 25 214 0.0 0.0 0.00 0.00 0.00 53 1014.9
20260510204004 25 214 0.0 0.0 0.00 0.00 0.00 53 1014.9
20260510203106 26 205 1.6 12.9 0.00 0.00 0.00 51 1015.9
20260510202549 27 191 6.4 12.9 0.00 0.00 0.00 50 1015.9
20260510202101 26 24 1.6 4.8 0.00 0.00 0.00 51 1016.0
20260510201549 26 172 1.6 4.8 0.00 0.00 0.00 53 1016.0
20260510201057 26 94 1.6 6.4 0.00 0.00 0.00 49 1016.1
20260510200051 25 158 1.6 3.2 0.00 0.00 0.00 52 1016.1
20260510195050 26 333 1.6 8.0 0.00 0.00 0.00 50 1016.1
20260510194600 27 276 1.6 14.5 0.00 0.00 0.00 49 1016.1
20260510193601 26 174 4.8 8.0 0.00 0.00 0.00 49 1016.2
20260510193050 27 147 1.6 6.4 0.00 0.00 0.00 50 1016.2
20260510192045 26 173 6.4 11.3 0.00 0.00 0.00 51 1016.4
20260510191554 27 91 1.6 14.5 0.00 0.00 0.00 49 1016.4
20260510191044 27 170 6.4 11.3 0.00 0.00 0.00 51 1016.5
20260510190554 27 229 4.8 11.3 0.00 0.00 0.00 51 1016.5
20260510185552 26 184 1.6 16.1 0.00 0.00 0.00 50 1016.6
20260510185507 26 292 1.6 16.1 0.00 0.00 0.00 50 1015.7
20260510184550 26 147 1.6 6.4 0.00 0.00 0.00 47 1016.6
20260510184057 26 144 3.2 14.5 0.00 0.00 0.00 47 1016.6
20260510183545 27 173 8.0 14.5 0.00 0.00 0.00 52 1016.5
20260510183049 26 192 3.2 9.7 0.00 0.00 0.00 51 1016.6
20260510182558 26 165 3.2 8.0 0.00 0.00 0.00 54 1016.5
20260510182047 26 177 4.8 9.7 0.00 0.00 0.00 49 1016.6
20260510181557 26 211 1.6 9.7 0.00 0.00 0.00 54 1016.6
20260510180601 26 88 3.2 6.4 0.00 0.00 0.00 52 1016.7
20260510180049 26 97 1.6 8.0 0.00 0.00 0.00 53 1016.7
20260510175551 26 185 4.8 8.0 0.00 0.00 0.00 50 1016.8
20260510175100 26 178 1.6 9.7 0.00 0.00 0.00 50 1016.9
20260510174548 26 162 3.2 12.9 0.00 0.00 0.00 54 1016.9
20260510174056 26 202 3.2 14.5 0.00 0.00 0.00 53 1016.9
20260510173548 26 190 8.0 11.3 0.00 0.00 0.00 51 1016.9
20260510173102 26 177 4.8 8.0 0.00 0.00 0.00 55 1016.9
20260510172549 26 161 1.6 8.0 0.00 0.00 0.00 55 1016.9
20260510172100 26 116 4.8 9.7 0.00 0.00 0.00 53 1016.9
20260510171548 26 175 3.2 11.3 0.00 0.00 0.00 52 1017.0
20260510170547 26 181 4.8 11.3 0.00 0.00 0.00 57 1017.1
20260510170502 25 189 1.6 9.7 0.00 0.00 0.00 57 1016.3
20260510170129 25 146 4.8 9.7 0.00 0.00 0.00 54 1017.2
20260510170024 25 153 4.8 9.7 0.00 0.00 0.00 54 1016.3
20260510165551 25 152 1.6 6.4 0.00 0.00 0.00 59 1017.2
20260510165101 25 153 0.0 4.8 0.00 0.00 0.00 57 1017.3
20260510164551 25 233 1.6 4.8 0.00 0.00 0.00 59 1017.3
20260510164103 25 244 1.6 6.4 0.00 0.00 0.00 60 1017.4
20260510163549 24 197 0.0 4.8 0.00 0.00 0.00 61 1017.5
20260510163059 24 129 1.6 4.8 0.00 0.00 0.00 62 1017.5
20260510162543 25 129 1.6 4.8 0.00 0.00 0.00 63 1017.6
20260510162056 25 170 1.6 4.8 0.00 0.00 0.00 64 1017.6
20260510161605 24 195 1.6 6.4 0.00 0.00 0.00 65 1017.6
20260510160549 24 98 3.2 6.4 0.00 0.00 0.00 63 1017.6
20260510160059 24 186 4.8 9.7 0.00 0.00 0.00 67 1017.7
20260510155601 23 163 6.4 9.7 0.00 0.00 0.00 67 1017.8
20260510155050 23 197 1.6 4.8 0.00 0.00 0.00 68 1017.7
20260510154601 23 44 1.6 3.2 0.00 0.00 0.00 70 1017.9
20260510154052 23 135 1.6 3.2 0.00 0.00 0.00 70 1017.9
20260510153603 22 117 1.6 3.2 0.00 0.00 0.00 73 1017.9
20260510153052 22 79 1.6 3.2 0.00 0.00 0.00 73 1017.8
20260510152600 22 52 0.0 3.2 0.00 0.00 0.00 74 1017.8
20260510152051 22 52 1.6 4.8 0.00 0.00 0.00 73 1017.7
20260510151557 22 113 3.2 4.8 0.00 0.00 0.00 76 1017.7
20260510151048 21 65 1.6 6.4 0.00 0.00 0.00 77 1017.9
20260510150056 21 172 1.6 8.0 0.00 0.00 0.00 82 1017.9
20260510145544 21 177 1.6 8.0 0.00 0.00 0.00 82 1017.9
20260510145056 20 179 0.0 3.2 0.00 0.00 0.00 84 1017.9
20260510144548 20 179 1.6 6.4 0.00 0.00 0.00 86 1017.9
20260510144055 19 162 3.2 6.4 0.00 0.00 0.00 88 1018.0
20260510143545 18 255 1.6 8.0 0.00 0.00 0.00 89 1018.1
20260510143051 18 162 0.0 8.0 0.00 0.00 0.00 89 1018.1
20260510142558 18 167 3.2 6.4 0.00 0.00 0.00 91 1018.1
20260510142047 18 178 1.6 6.4 0.00 0.00 0.00 92 1018.1
20260510141559 17 178 3.2 6.4 0.00 0.00 0.00 92 1018.1
20260510141051 17 193 4.8 9.7 0.00 0.00 0.00 93 1018.2
20260510140542 17 176 4.8 9.7 0.00 0.00 0.00 94 1018.2
20260510140055 17 177 1.6 6.4 0.00 0.00 0.00 95 1018.1
20260510135050 17 176 3.2 6.4 0.00 0.00 0.00 96 1017.9
20260510134558 17 166 0.0 4.8 0.00 0.00 0.00 96 1017.9
20260510134049 17 160 1.6 3.2 0.00 0.00 0.00 96 1017.8
20260510133600 16 160 0.0 0.0 0.00 0.00 0.00 96 1017.8
20260510133051 16 160 0.0 0.0 0.00 0.00 0.00 97 1017.7
20260510132601 16 160 0.0 0.0 0.00 0.00 0.00 97 1017.7
20260510132050 16 160 0.0 0.0 0.00 0.00 0.00 97 1017.7
20260510131556 16 160 0.0 0.0 0.00 0.00 0.00 96 1017.7
20260510131101 16 160 0.0 0.0 0.00 0.00 0.00 97 1017.7
20260510130101 16 160 0.0 0.0 0.00 0.00 0.00 97 1017.7
20260510125547 16 160 0.0 1.6 0.00 0.00 0.00 97 1017.7
20260510124556 16 160 0.0 1.6 0.00 0.00 0.00 97 1017.4
20260510124047 16 160 0.0 1.6 0.00 0.00 0.00 97 1017.5
20260510123556 16 54 0.0 1.6 0.00 0.00 0.00 97 1017.4
20260510123101 16 54 0.0 1.6 0.00 0.00 0.00 97 1017.4
20260510122604 15 54 0.0 1.6 0.00 0.00 0.00 97 1017.3
20260510122053 15 54 0.0 1.6 0.00 0.00 0.00 97 1017.2
20260510121559 15 54 0.0 1.6 0.00 0.00 0.00 97 1017.1
20260510121047 15 186 0.0 0.0 0.00 0.00 0.00 97 1017.0
20260510120554 15 186 0.0 3.2 0.00 0.00 0.00 97 1017.0
20260510120100 15 186 1.6 3.2 0.00 0.00 0.00 96 1016.9
20260510115547 14 186 0.0 0.0 0.00 0.00 0.00 97 1016.9
20260510115055 14 186 0.0 0.0 0.00 0.00 0.00 96 1016.7
20260510114546 14 186 0.0 0.0 0.00 0.00 0.00 96 1016.6
20260510114058 14 186 0.0 0.0 0.00 0.00 0.00 96 1016.4
20260510113548 14 186 0.0 0.0 0.00 0.00 0.00 96 1016.4
20260510113057 14 186 0.0 0.0 0.00 0.00 0.00 96 1016.3
20260510112544 14 186 0.0 0.0 0.00 0.00 0.00 96 1016.2
20260510112051 13 186 0.0 0.0 0.00 0.00 0.00 96 1016.2
20260510111601 13 186 0.0 0.0 0.00 0.00 0.00 96 1016.1
20260510110605 13 186 0.0 0.0 0.00 0.00 0.00 96 1016.0
20260510110519 13 186 0.0 0.0 0.00 0.00 0.00 96 1015.3
20260510110123 13 186 0.0 0.0 0.00 0.00 0.00 96 1015.9
20260510105602 13 186 0.0 0.0 0.00 0.00 0.00 96 1015.8
20260510105048 13 186 0.0 0.0 0.00 0.00 0.00 96 1015.6
20260510104603 13 186 0.0 0.0 0.00 0.00 0.00 96 1015.5
20260510104052 13 186 0.0 0.0 0.00 0.00 0.00 96 1015.4
20260510103601 13 186 0.0 0.0 0.00 0.00 0.00 96 1015.4
20260510103049 13 186 0.0 0.0 0.00 0.00 0.00 96 1015.3
20260510102559 14 186 0.0 0.0 0.00 0.00 0.00 96 1015.3
20260510102048 14 186 0.0 0.0 0.00 0.00 0.00 96 1015.2
20260510101558 13 186 0.0 0.0 0.00 0.00 0.00 96 1015.3
20260510101045 13 186 0.0 0.0 0.00 0.00 0.00 96 1015.2
20260510100555 14 186 0.0 0.0 0.00 0.00 0.00 96 1015.3
20260510100105 14 186 0.0 0.0 0.00 0.00 0.00 96 1015.2
20260510095551 14 186 0.0 0.0 0.00 0.00 0.00 95 1015.2
20260510095100 14 186 0.0 0.0 0.00 0.00 0.00 96 1015.1
20260510094551 14 186 0.0 0.0 0.00 0.00 0.00 96 1015.0
20260510094100 14 186 0.0 0.0 0.00 0.00 0.00 96 1014.9
20260510093549 15 186 0.0 0.0 0.00 0.00 0.00 96 1014.8
20260510093056 15 186 0.0 0.0 0.00 0.00 0.00 96 1014.8
20260510092601 14 186 0.0 0.0 0.00 0.00 0.00 96 1014.7
20260510092047 15 186 0.0 0.0 0.00 0.00 0.00 96 1014.8
20260510091559 15 186 0.0 0.0 0.00 0.00 0.00 96 1014.7
20260510090105 15 186 0.0 0.0 0.00 0.00 0.00 96 1014.7
20260510084553 15 186 0.0 0.0 0.00 0.00 0.00 96 1014.7
20260510083556 15 186 0.0 0.0 0.00 0.00 0.00 96 1014.4
20260510082059 15 186 0.0 0.0 0.00 0.00 0.00 96 1014.3
20260510081551 15 186 0.0 0.0 0.00 0.00 0.00 95 1014.3
20260510081057 15 186 0.0 0.0 0.00 0.00 0.00 95 1014.4
20260510080544 15 186 0.0 0.0 0.00 0.00 0.00 96 1014.3
20260510080054 15 186 0.0 0.0 0.00 0.00 0.00 95 1014.3
20260510075600 15 186 0.0 0.0 0.00 0.00 0.00 96 1014.3
20260510075050 15 186 0.0 0.0 0.00 0.00 0.00 95 1014.2
20260510074603 15 186 0.0 0.0 0.00 0.00 0.00 95 1014.3
20260510074053 15 186 0.0 0.0 0.00 0.00 0.00 95 1014.2
20260510073556 15 186 0.0 0.0 0.00 0.00 0.00 96 1014.1
20260510073105 15 186 0.0 0.0 0.00 0.00 0.00 95 1014.1
20260510072552 15 186 0.0 0.0 0.00 0.00 0.00 95 1014.1
20260510072101 15 186 0.0 0.0 0.00 0.00 0.00 95 1014.1
20260510071551 15 186 0.0 0.0 0.00 0.00 0.00 95 1014.1
20260510071103 15 186 0.0 0.0 0.00 0.00 0.00 95 1014.1
20260510070551 15 186 0.0 0.0 0.00 0.00 0.00 95 1014.0
20260510065547 16 186 0.0 0.0 0.00 0.00 0.00 95 1013.9
20260510065054 16 186 0.0 0.0 0.00 0.00 0.00 95 1013.9
20260510064601 16 186 0.0 0.0 0.00 0.00 0.00 95 1014.0
20260510064049 16 186 0.0 0.0 0.00 0.00 0.00 95 1013.9
20260510063557 16 186 0.0 0.0 0.00 0.00 0.00 95 1014.0
20260510063100 16 186 0.0 0.0 0.00 0.00 0.00 95 1014.1
20260510062547 16 186 0.0 0.0 0.00 0.00 0.00 95 1014.0
20260510061548 16 186 0.0 0.0 0.00 0.00 0.00 95 1014.0
20260510061057 16 186 0.0 0.0 0.00 0.00 0.00 95 1014.0
20260510060546 16 186 0.0 0.0 0.00 0.00 0.00 95 1014.1
20260510060058 16 186 0.0 0.0 0.00 0.00 0.00 95 1014.1
20260510055600 16 186 0.0 0.0 0.00 0.00 0.00 95 1014.1
20260510055051 16 186 0.0 0.0 0.00 0.00 0.00 95 1014.2
20260510054601 16 186 0.0 0.0 0.00 0.00 0.00 95 1014.2
20260510054048 16 186 0.0 0.0 0.00 0.00 0.00 95 1014.3
20260510053556 16 186 0.0 0.0 0.00 0.00 0.00 95 1014.2
20260510053105 16 186 0.0 0.0 0.00 0.00 0.00 94 1014.2
20260510052046 16 186 0.0 0.0 0.00 0.00 0.00 94 1014.2
20260510051553 16 186 0.0 0.0 0.00 0.00 0.00 94 1014.3
20260510051044 16 186 0.0 0.0 0.00 0.00 0.00 94 1014.3
20260510050554 16 186 0.0 0.0 0.00 0.00 0.00 94 1014.4
20260510050106 16 186 0.0 0.0 0.00 0.00 0.00 94 1014.5
20260510045551 16 186 0.0 0.0 0.00 0.00 0.00 94 1014.5
20260510045100 16 186 0.0 0.0 0.00 0.00 0.00 94 1014.6
20260510044551 16 186 0.0 0.0 0.00 0.00 0.00 94 1014.6
20260510044100 16 186 0.0 0.0 0.00 0.00 0.00 94 1014.6
20260510043551 16 186 0.0 0.0 0.00 0.00 0.00 94 1014.6
20260510043059 16 186 0.0 0.0 0.00 0.00 0.00 94 1014.6
20260510042544 16 186 0.0 0.0 0.00 0.00 0.00 94 1014.6
20260510041554 16 186 0.0 0.0 0.00 0.00 0.00 94 1014.7
20260510040556 16 186 0.0 0.0 0.00 0.00 0.00 93 1014.8
20260510040133 16 186 0.0 0.0 0.00 0.00 0.00 93 1014.8
20260510035554 16 186 0.0 0.0 0.00 0.00 0.00 93 1014.8
20260510035101 16 186 0.0 0.0 0.00 0.00 0.00 93 1014.8
20260510034551 16 186 0.0 0.0 0.00 0.00 0.00 93 1014.9
20260510034055 17 186 0.0 0.0 0.00 0.00 0.00 93 1014.9
20260510033055 17 186 0.0 0.0 0.00 0.00 0.00 92 1014.9
20260510032601 17 186 0.0 0.0 0.00 0.00 0.00 92 1014.8
20260510032051 17 186 0.0 0.0 0.00 0.00 0.00 92 1014.9
20260510031558 17 186 0.0 0.0 0.00 0.00 0.00 92 1014.8
20260510031050 17 186 0.0 0.0 0.00 0.00 0.00 92 1014.9
20260510030557 17 186 0.0 0.0 0.00 0.00 0.00 92 1014.9
20260510030119 17 186 0.0 0.0 0.00 0.00 0.00 91 1014.8
20260510025054 17 186 0.0 0.0 0.00 0.00 0.00 91 1014.6
20260510024603 17 186 0.0 0.0 0.00 0.00 0.00 91 1014.5
20260510024052 17 186 0.0 0.0 0.00 0.00 0.00 91 1014.3
20260510023601 17 186 0.0 0.0 0.00 0.00 0.00 90 1014.3
20260510022555 17 186 0.0 0.0 0.00 0.00 0.00 90 1014.4
20260510021558 17 186 0.0 0.0 0.00 0.00 0.00 90 1014.3
20260510021047 17 186 0.0 0.0 0.00 0.00 0.00 90 1014.3
20260510020558 17 186 0.0 0.0 0.00 0.00 0.00 90 1014.2
20260510020049 17 186 0.0 0.0 0.00 0.00 0.00 90 1014.1
20260510015553 17 186 0.0 0.0 0.00 0.00 0.00 91 1014.0
20260510015101 17 186 0.0 0.0 0.00 0.00 0.00 91 1014.0
20260510014552 17 186 0.0 0.0 0.00 0.00 0.00 91 1013.9
20260510014102 17 186 0.0 0.0 0.00 0.00 0.00 91 1013.9
20260510013550 17 186 0.0 0.0 0.00 0.00 0.00 91 1013.8
20260510013100 17 186 0.0 0.0 0.00 0.00 0.00 90 1013.8
20260510012055 18 186 0.0 0.0 0.00 0.00 0.00 90 1013.9
20260510011559 18 186 0.0 0.0 0.00 0.00 0.00 90 1013.8
20260510011049 18 186 0.0 0.0 0.00 0.00 0.00 89 1013.8
20260510010601 18 186 0.0 0.0 0.00 0.00 0.00 89 1013.7
20260510010050 18 186 0.0 0.0 0.00 0.00 0.00 89 1013.6
20260510004558 18 186 0.0 0.0 0.00 0.00 0.00 88 1013.3
20260510004048 18 186 0.0 0.0 0.00 0.00 0.00 87 1013.3
20260510003551 18 186 0.0 0.0 0.00 0.00 0.00 87 1013.3
20260510003102 18 186 0.0 0.0 0.00 0.00 0.00 87 1013.2
20260510002550 18 186 0.0 0.0 0.00 0.00 0.00 86 1013.1
20260510001100 18 186 0.0 0.0 0.00 0.00 0.00 86 1013.0
20260510000055 19 186 0.0 0.0 0.00 0.00 0.00 85 1013.2
20260510000007 18 186 0.0 0.0 0.00 0.00 0.00 85 1012.4
20260509235047 19 186 0.0 3.2 0.00 0.00 0.00 84 1013.1
20260509234551 19 186 1.6 4.8 0.00 0.00 0.00 84 1013.1
20260509234100 19 186 3.2 6.4 0.00 0.00 0.00 83 1013.0
20260509233057 20 195 3.2 6.4 0.00 0.00 0.00 83 1012.8
20260509232605 20 173 0.0 3.2 0.00 0.00 0.00 83 1012.7
20260509232053 20 173 0.0 3.2 0.00 0.00 0.00 82 1012.6
20260509231545 20 173 0.0 3.2 0.00 0.00 0.00 82 1012.5
20260509231049 20 173 0.0 4.8 0.00 0.00 0.00 82 1012.5